Weather in Hanga Roa

Chile     27°08′56″S   109°25′28″W
temp.,
°C
wind,
m/s
gust,
m/s
humid.,
%
clouds,
%
prec.,
mm/h
press.,
hPa
HPBL,
m
21 april, wed
wed2100:00+24nne56810 4.4 1022541
03:00+23ne66800 1.4 1021583
06:00+24ne667822 2.8 1021709
09:00+24ne777511 0.2 1022870
12:00+24ne77720 0.2 1023843
15:00+24ne677712 0.0 1022829
18:00+24ne887599 0.3 1022915
21:00+24ene777468 0.1 1023893
22 april, thu
thu2200:00+23ene6671100 0.1 10231055
03:00+23ene557010 0.0 1022912
06:00+23ene45699 0.0 1022944
09:00+23ene55742 0.0 1023841
12:00+23ne557720 0.3 1023786
15:00+23ne557422 0.3 1021823
18:00+23ene44715 0.3 1021766
21:00+23e44705 0.0 1023721
23 april, fri
fri2300:00+23e44675 0.0 1023804
03:00+23ene44713 0.0 1022887
06:00+23e44747 0.1 1021786
09:00+23ene457410 0.0 1023794
12:00+23ene55705 0.0 1023985
15:00+23ene66723 0.1 1021913
18:00+23ene66701 0.4 1020956
21:00+23ene55700 0.0 1022893
24 april, sat
sat2400:00+23ene55702 0.0 1022943
03:00+23ne44680 0.0 1021921
06:00+23ne33670 0.0 1020913
09:00+23ene33680 0.0 1022803
12:00+23ne44710 0.0 1022778
15:00+23nne227118 0.1 1020779
18:00+23nne22720 0.1 1019636
21:00+23nne22730 0.0 1020642
25 april, sun
sun2500:00+23nnw22750 0.3 1020386
03:00+23n227510 0.3 1019588
06:00+22nnw00750 0.5 1018469
09:00+22w11765 0.1 1020445
12:00+23nw23741 0.1 1020601
15:00+23nw44715 0.0 1018723
18:00+23nw45705 0.0 1017795
21:00+23nw55745 0.0 1018836